Location: Amsterdam
(30.7274°N, 84.4357°W)
Time: 20:47:37
(UTC+00:00)

Explorer 11/Cluster Stage 4 - Pass Details

Date: 17 February 2026
Orbit: 463 x 1176 km, 28.8° (Epoch: 5 March)

Event Time Altitude Azimuth Distance (km) Brightness Sun altitude
Rises 16:42:41 0° 213° (SSW) 3,091 10.0 44.3°
Reaches altitude 10° 16:46:26 10° 187° (S) 2,005 9.5 44.7°
Maximum altitude 16:48:39 13° 158° (SSE) 1,700 9.5 44.8°
Drops below altitude 10° 16:50:44 10° 128° (SE) 1,832 9.3 45.0°
Sets 16:53:51 0° 100° (E) 2,616 9.6 45.3°
